Regional Weather Roundup
Issued by NWS

Home | Current Version | Previous Version | Graphics & Text | Print | Product List | Glossary On
Versions: 1 2 3 4 5 6 7 8 9 10 11 12 13 14 15 16 17 18 19 20 21 22 23 24 25 26 27 28 29 30 31 32 33 34 35 36 37 38 39 40 41 42 43 44 45 46 47 48 49 50
000
ASUS43 KLSX 170707
RWRMO

WEATHER SUMMARY FOR MISSOURI
NATIONAL WEATHER SERVICE SPRINGFIELD MO
100 AM CST SUN DEC 17 2017

NOTE: "FAIR" INDICATES FEW OR NO CLOUDS BELOW 12,000 FEET WITH NO
       SIGNIFICANT WEATHER AND/OR OBSTRUCTIONS TO VISIBILITY.
       CURRENT SKY AND/OR WEATHER CONDITIONS ARE NOT AVAILABLE FOR
       CHILLICOTHE AND FARMINGTON.

MOZ001>031-035>038-043-044-053-054-170800-
...NORTHERN AND WESTERN MISSOURI...

CITY           SKY/WX    TMP DP  RH WIND       PRES   REMARKS
KANSAS CTY INT CLOUDY    47  27  45 S12       29.96S
KANSAS C DTWN  CLOUDY    50  27  40 S10       29.97S
LEE`S SUMMIT   CLOUDY    47  27  45 S13       29.98S
ST JOSEPH      CLOUDY    37  31  78 S3        29.96F
CHILLICOTHE      N/A     45  27  49 S5        29.99S
KIRKSVILLE     CLOUDY    42  30  62 S3        29.99S

$$
MOZ066>068-077>081-088>096-101>105-170800-
...SOUTHWEST MISSOURI...

CITY           SKY/WX    TMP DP  RH WIND       PRES   REMARKS
SPRINGFIELD    CLOUDY    48  28  46 S10       30.02R
JOPLIN         RAIN      43  42  97 S8        30.05R FOG

$$
MOZ032>034-039>042-045>050-055>058-069>072-170800-
...CENTRAL MISSOURI...

CITY           SKY/WX    TMP DP  RH WIND       PRES   REMARKS
COLUMBIA       CLOUDY    44  27  51 S8        30.01F
JEFFERSON CITY CLOUDY    48  27  44 E6        30.02F
ROLLA          CLOUDY    45  29  53 S10       30.03F
SEDALIA        MOCLDY    49  28  44 S9        30.00F
WHITEMAN AFB   MOCLDY    44  27  50 S8        29.94F
WARRENSBURG    CLOUDY    46  27  46 S7        29.98F
OSAGE BEACH    CLOUDY    45  27  49 S7        30.02F

$$
MOZ051-052-059>065-170800-
...EAST CENTRAL MISSOURI...

CITY           SKY/WX    TMP DP  RH WIND       PRES   REMARKS
ST LOUIS INTL  CLOUDY    46  29  51 S7        30.08R
SPIRIT OF STL  CLOUDY    42  29  59 CALM      30.07S
ST CHARLES     MOCLDY    40  29  64 E5        30.07S

$$
MOZ072>076-082>087-097>100-106>115-170800-
...SOUTH CENTRAL AND SOUTHEAST MISSOURI...

CITY           SKY/WX    TMP DP  RH WIND       PRES   REMARKS
CAPE GIRARDEAU MOCLDY    44  31  60 S12       30.14R
FARMINGTON     CLOUDY    44  30  57 S3        30.07F
POPLAR BLUFF   CLOUDY    43  33  68 S3        30.11S
WEST PLAINS    CLOUDY    44  28  53 S8        30.07S

$$



USA.gov is the U.S. government's official web portal to all federal, state and local government web resources and services.